Terminal Aerodrome Forecast
Issued by NWS

Current Version | Previous Version | Graphics & Text | Print | Product List | Glossary On
Versions: 1 2 3 4 5 6 7 8 9 10 11 12 13 14 15 16 17 18 19 20 21 22 23 24
745
FTUS41 KRLX 210258 AAA
TAFCKB
TAF AMD
KCKB 210258Z 2103/2124 30004KT P6SM SCT050
     FM210500 00000KT 4SM BR SCT080
     FM210700 00000KT 1/4SM FG BKN001
     FM211300 00000KT 3SM BR SCT001 BKN060
     FM211400 00000KT P6SM BKN045=

USA.gov is the U.S. government's official web portal to all federal, state and local government web resources and services.